Weather History for KPHP - February, 2014

Change the Weather History Date:

Wednesday, February 12, 2014

  Actual Average Record
Temperature  
Mean Temperature 30 °F 25 °F  
Max Temperature 46 °F 38 °F 65 °F (1983)
Min Temperature 14 °F 12 °F -15 °F (1955)
Degree Days  
Heating Degree Days 35 40  
Month to date heating degree days 698 491  
Since 1 July heating degree days 4966 4756  
Cooling Degree Days 0 0  
Month to date cooling degree days 0 0  
Year to date cooling degree days 0 0  
Moisture  
Dew Point 20 °F    
Average Humidity 66    
Maximum Humidity 88    
Minimum Humidity 43    
Precipitation  
Precipitation 0.00 in 0.01 in 0.12 in (1993)
Month to date precipitation 0.15 0.14  
Year to date precipitation 0.26 0.44  
Sea Level Pressure  
Sea Level Pressure 29.89 in    
Wind  
Wind Speed 11 mph (South)    
Max Wind Speed 29 mph    
Max Gust Speed 37 mph    
Visibility 10 miles    
Events      
T = Trace of Precipitation, MM = Missing Value Source: NWS Daily Summary

Daily Weather History Graph

Daily Weather History Graph

Search for Another Location

Airport or City:

Trip Planner

Search our weather history database for the weather conditions in past years. The results will help you decide how hot, cold, wet, or windy it might be!

Date:

Astronomy

Feb. 12, 2014 Rise Set
Actual Time 6:49 AM MST 5:12 PM MST
Civil Twilight 6:20 AM MST 5:41 PM MST
Nautical Twilight 5:46 AM MST 6:15 PM MST
Astronomical Twilight 5:12 AM MST 6:49 PM MST
Moon 3:26 PM MST (2/12) 5:09 AM MST (2/12)
Length of Visible Light 11h 21m
Length of Day
10h 22m
Waxing Gibbous, 96% of the Moon is Illuminated
Feb 12
Waxing Gibbous
Feb 14
Full
Feb 22
Last Quarter
Mar 1
New
Mar 8
First Quarter

Hourly Weather History & Observations

Time (MST) Temp. Windchill Dew Point Humidity Pressure Visibility Wind Dir Wind Speed Gust Speed Precip Events Conditions
12:55 AM 23.0 °F 9.6 °F 18.0 °F 81% 30.14 in 10.0 mi NNW 16.1 mph - N/A   Overcast
1:09 AM 23.0 °F 8.7 °F 17.6 °F 80% 30.09 in 10.0 mi NNW 18.4 mph - N/A   Overcast
1:55 AM 21.9 °F 14.5 °F 17.1 °F 82% 30.16 in 10.0 mi NW 5.8 mph - N/A   Overcast
2:55 AM 21.0 °F 13.4 °F 16.0 °F 81% 30.17 in 10.0 mi North 5.8 mph - N/A   Overcast
3:55 AM 18.0 °F - 14.0 °F 84% 30.18 in 10.0 mi Calm Calm - N/A   Mostly Cloudy
4:55 AM 19.0 °F - 14.0 °F 81% 30.18 in 10.0 mi Calm Calm - N/A   Overcast
5:42 AM 15.8 °F 8.6 °F 12.2 °F 86% 30.10 in 10.0 mi East 4.6 mph - N/A   Scattered Clouds
5:55 AM 15.1 °F 9.4 °F 12.0 °F 88% 30.17 in 10.0 mi East 3.5 mph - N/A   Clear
6:55 AM 15.1 °F 6.4 °F 12.0 °F 88% 30.14 in 10.0 mi ESE 5.8 mph - N/A   Clear
7:27 AM 15.8 °F 7.2 °F 12.2 °F 86% 30.05 in 10.0 mi East 5.8 mph - N/A   Mostly Cloudy
7:55 AM 19.0 °F 10.0 °F 16.0 °F 88% 30.12 in 10.0 mi East 6.9 mph - N/A   Overcast
8:20 AM 19.4 °F 11.5 °F 15.8 °F 86% 30.04 in 10.0 mi ESE 5.8 mph - N/A   Scattered Clouds
8:42 AM 21.2 °F 12.6 °F 17.6 °F 86% 30.03 in 10.0 mi East 6.9 mph - N/A   Partly Cloudy
8:55 AM 21.9 °F 12.5 °F 18.0 °F 85% 30.07 in 10.0 mi ESE 8.1 mph - N/A   Clear
9:55 AM 30.0 °F 20.5 °F 23.0 °F 75% 30.01 in 10.0 mi SSE 11.5 mph - N/A   Clear
10:55 AM 34.0 °F 26.0 °F 25.0 °F 70% 29.97 in 10.0 mi South 10.4 mph - N/A   Clear
11:55 AM 37.9 °F 30.0 °F 24.1 °F 57% 29.89 in 10.0 mi South 12.7 mph - N/A   Clear
12:55 PM 41.0 °F 32.8 °F 25.0 °F 53% 29.80 in 10.0 mi SSE 16.1 mph - N/A   Clear
1:55 PM 43.0 °F 34.8 °F 21.0 °F 42% 29.70 in 10.0 mi South 18.4 mph 26.5 mph N/A   Clear
2:55 PM 42.1 °F 32.8 °F 21.0 °F 43% 29.65 in 10.0 mi SSW 21.9 mph 35.7 mph N/A   Clear
3:55 PM 39.9 °F 31.4 °F 23.0 °F 51% 29.62 in 10.0 mi SSW 16.1 mph 24.2 mph N/A   Clear
4:55 PM 39.9 °F 33.9 °F 24.1 °F 53% 29.58 in 10.0 mi SW 9.2 mph - N/A   Scattered Clouds
5:55 PM 37.9 °F 30.5 °F 25.0 °F 60% 29.59 in 10.0 mi SW 11.5 mph - N/A   Clear
6:55 PM 36.0 °F 31.1 °F 25.0 °F 64% 29.57 in 10.0 mi SW 5.8 mph - N/A   Mostly Cloudy
7:55 PM 39.9 °F 31.1 °F 27.0 °F 60% 29.55 in 10.0 mi WSW 17.3 mph - N/A   Clear
8:55 PM 39.0 °F 31.0 °F 27.0 °F 62% 29.55 in 10.0 mi West 13.8 mph - N/A   Clear
9:55 PM 37.9 °F 28.9 °F 27.0 °F 65% 29.55 in 10.0 mi WSW 16.1 mph - N/A   Clear
10:55 PM 45.0 °F 37.6 °F 26.1 °F 48% 29.59 in 10.0 mi West 17.3 mph 27.6 mph N/A   Scattered Clouds
11:55 PM 41.0 °F 33.9 °F 28.0 °F 60% 29.62 in 10.0 mi WNW 12.7 mph - N/A   Clear